sat.trackr.live / text

‹ back to catalog

STARLINK-3268

NORAD 50190 · 2021-125AL

PAYLOAD ACTIVE UNKNOWN

§ Identity

Operator
Country
US
Launch date
2021-12-18
Launch site
AFWTR
Launch vehicle
Mass (kg)
RCS (m²)

Purposes: comms

External: N2YO · Heavens-Above · Gunter

§ Orbital elements

Epoch: 2026-05-25T00:17:34.986336Z

Period
95.44 min
Inclination
53.2148°
Eccentricity
0.0001194
Mean motion
15.08833594 rev/d
Perigee alt
538.9 km
Apogee alt
540.6 km
Semi-major
6,917.9 km
B*
4.6699e-5
RAAN
256.4946°
Arg perigee
85.5648°
Mean anomaly
274.5480°
Rev number
24,825

§ Raw data

STARLINK-32681 50190U 21125AL  26145.01221049  .00000455  00000+0  46699-4 0  99942 50190  53.2148 256.4946 0001194  85.5648 274.5480 15.08833594248254

JSON: /api/v1/satellites/50190 · /tle

For live sub-satellite position, see the globe view (requires WebGL).

§ Visibility from observer

Set your observer location to see the next 7 days of passes ≥ 10°. The values pass through the URL so the page stays shareable.

No JS? Fill the form by hand. The geolocation button needs JavaScript.